Location: Bishop�s Knoyle
(51.0728°N, 2.1714°W)
Time: 21:47:50
(UTC+00:00)

Cosmos 1782 Rocket - Pass Details

Date: 18 September 2020
Orbit: 606 x 632 km, 82.5° (Epoch: 30 October)

Event Time Altitude Azimuth Distance (km) Brightness Sun altitude
Rises 18:43:08 0° 173° (S) 2,884 6.8 -5.2°
Reaches altitude 10° 18:45:23 10° 168° (SSE) 1,988 6.0 -5.6°
Maximum altitude 18:49:38 48° 94° (E) 819 3.8 -6.2°
Drops below altitude 10° 18:53:56 10° 20° (NNE) 2,018 6.1 -6.9°
Sets 18:56:14 0° 15° (NNE) 2,934 7.0 -7.2°
